User: anonymous   Login
Location: Albany
(35.0000°S, 118.0000°E)
Time: 08:20:36
(UTC-04:00)
Language:

Radarsat Rocket - Orbit

View from above orbital plane
View from above orbital plane
View from above satellite
View from above satellite

Ground track
Ground track

The orbit data is extracted from the following two-line orbital elements,

1 23711U 95059B   17267.01397742 -.00000067  00000-0 -47158-4 0  9992
2 23711 100.5696 256.5043 0368540  95.3631 302.1784 13.12696355 48762
Epoch (UTC): 24 September 2017 00:20:07
Eccentricity: 0.0368540
inclination: 100.5696°
perigee height: 933 km
apogee height: 1492 km
right ascension of ascending node: 256.5043°
argument of perigee: 95.3631°
revolutions per day: 13.12696355
mean anomaly at epoch: 302.1784°
orbit number at epoch: 4876

The dashed part of the orbit path shows where the satellite is in the earth's shadow,  

DLR